Location: Milevsko
(49.4500°N, 14.3670°E)
Time: 20:40:09
(UTC+02:00)

ISS - Pass Details

Date: 21 July 2018
Orbit: 402 x 408 km, 51.6° (Epoch: 17 July)

Event Time Altitude Azimuth Distance (km) Brightness Sun altitude
Rises 01:22:02 0° 279° (W) 2,326 0.1 -20.0°
Reaches altitude 10° 01:24:08 10° 284° (WNW) 1,466 -0.9 -19.9°
Maximum altitude 01:27:23 57° 4° (N) 486 -3.2 -19.9°
Drops below altitude 10° 01:30:38 10° 84° (E) 1,468 -0.9 -19.9°
Sets 01:32:44 0° 89° (E) 2,329 0.1 -19.8°
